Regional Weather Roundup
Issued by NWS Burlington, VT

Home | Current Version | Previous Version | Text Only | Print | Product List | Glossary On
Versions: 1 2 3 4 5 6 7 8 9 10 11 12 13 14 15 16 17 18 19 20 21 22 23 24 25 26 27 28 29 30 31 32 33 34 35 36 37 38 39 40 41 42 43 44 45 46 47 48 49 50
000
ASUS41 KBTV 060030
RWRBTV
VERMONT REGIONAL WEATHER ROUNDUP
NATIONAL WEATHER SERVICE BURLINGTON VT
700 PM EST FRI FEB 05 2016

NOTE: "FAIR" INDICATES FEW OR NO CLOUDS BELOW 12,000 FEET WITH NO
SIGNIFICANT WEATHER AND/OR OBSTRUCTIONS TO VISIBILITY.

* THESE REPORTS ARE NOT UNDER NWS QUALITY CONTROL AND/OR DO NOT
  REPORT WEATHER SUCH AS PRECIPITATION AND FOG.

VTZ001>019-060100-
_____VERMONT_____


CITY           SKY/WX    TMP DP  RH WIND       PRES   REMARKS
BURLINGTON     FAIR      26  12  55 N5        30.24R WCI  20
6HR MIN TEMP:  26; 6HR MAX TEMP:  29;

MONTPELIER     FAIR      21  12  68 NW7       30.19R WCI  12
6HR MIN TEMP:  21; 6HR MAX TEMP:  27;

MORRISVILLE    MOCLDY    25  14  63 VRB3      30.20R
6HR MIN TEMP:  25; 6HR MAX TEMP:  28;

ST. JOHNSBURY*   N/A     24  11  57 MISG      30.16R
6HR MIN TEMP:  24; 6HR MAX TEMP:  31;

LYNDONVILLE*   FAIR      19  12  72 W7        30.16R WCI  10
6HR MIN TEMP:  19; 6HR MAX TEMP:  27;

RUTLAND*       FAIR      25  10  54 NW3       30.20R
6HR MIN TEMP:  25; 6HR MAX TEMP:  30;

SPRINGFIELD    FAIR      27   8  44 NW9       30.18R WCI  18
6HR MIN TEMP:  27; 6HR MAX TEMP:  33;

HIGHGATE*      FAIR      23  13  65 CALM      30.24R
6HR MIN TEMP:  24; 6HR MAX TEMP:  28;

NEWPORT*       FAIR      19  11  70 CALM      30.17S
6HR MIN TEMP:  19; 6HR MAX TEMP:  25;

BENNINGTON     FAIR      27  17  66 VRB6      30.20R WCI  20
6HR MIN TEMP:  27; 6HR MAX TEMP:  35;

GALLUP MILLS*    N/A     18 N/A N/A MISG        N/A
UNION VILLAGE*   N/A     25 N/A N/A MISG        N/A
MT. MANSFIELD*   N/A      9 N/A N/A NW38        N/A  WCI -16

_____LAKE CHAMPLAIN_____


CITY           SKY/WX    TMP DP  RH WIND       PRES   REMARKS
COLCHESTER RF*   N/A     30  16  55 N14         N/A  WCI  20
DIAMOND ISL*     N/A     30  18  59 N12         N/A  WCI  21

$$

NYZ007-026>031-035-052-083-060100-
_____NORTHERN NEW YORK_____


CITY           SKY/WX    TMP DP  RH WIND       PRES   REMARKS
PLATTSBURGH    CLEAR     24  11  57 CALM      30.24R
6HR MIN TEMP:  24; 6HR MAX TEMP:  30;

SARANAC LAKE   CLEAR     19   9  65 W5        30.16R WCI  12
6HR MIN TEMP:  19; 6HR MAX TEMP:  23; 6HR PCP: TRACE;

MASSENA        PTCLDY    22  12  65 SW5       30.28R WCI  16
6HR MIN TEMP:  22; 6HR MAX TEMP:  30;

OGDENSBURG*    CLEAR     21  18  86 S5        30.27S WCI  15
POTSDAM*       CLEAR     23  16  74 SW5       30.26S WCI  17
STARK FALLS*     N/A     25 N/A N/A SW2         N/A
WATERTOWN      MOCLDY    27  16  63 S5        30.29S WCI  22
6HR MIN TEMP:  26; 6HR MAX TEMP:  31;

ALBANY         CLEAR     32  13  45 W18G24    30.24R WCI  20
6HR MIN TEMP:  32; 6HR MAX TEMP:  41;

GLENS FALLS    CLEAR     30  11  45 NW8       30.24R WCI  22
6HR MIN TEMP:  27; 6HR MAX TEMP:  37;


$$
NHZ002-005-011-060100-
_____NEW HAMPSHIRE_____


CITY           SKY/WX    TMP DP  RH WIND       PRES   REMARKS
LEBANON        CLEAR     26  12  55 NW9       30.17R WCI  17
6HR MIN TEMP:  26; 6HR MAX TEMP:  33;

MT WASHINGTON  BLWGSNOW   0   0 100 NW69G78     N/A  VSB 1/8 WCI -35
6HR MIN TEMP:  -1; 6HR MAX TEMP:   6; 6HR PCP:  0.04;

PLYMOUTH       FAIR      25  14  62 W14       30.14R WCI  14
6HR MIN TEMP:  26; 6HR MAX TEMP:  32;

WHITEFIELD     CLEAR     19  10  68 CALM      30.12R
6HR MIN TEMP:  18; 6HR MAX TEMP:  29;


$$

_____REGIONAL QUEBEC LOCATIONS_____


CITY           SKY/WX    TMP DP  RH WIND       PRES   REMARKS
MONTREAL       CLEAR     27  12  54 W12       30.23R WCI  16
QUEBEC CITY    CLEAR     18   7  62 NW9       30.16  WCI   6
SHERBROOKE     CLEAR     16  10  79 SW5       30.15R WCI   9

_____REGIONAL ONTARIO LOCATIONS_____


CITY           SKY/WX    TMP DP  RH WIND       PRES   REMARKS
OTTAWA         PTCLDY    23  12  63 S5        30.24F WCI  17

______KEY______
VSB  - VISIBILITY IN MILES
WCI  - WIND CHILL INDEX
HX   - HEAT INDEX
$$
NNNN



USA.gov is the U.S. government's official web portal to all federal, state and local government web resources and services.